sat.trackr.live / text

‹ back to catalog

STARLINK-32122

NORAD 60285 · 2024-132H

PAYLOAD ACTIVE UNKNOWN

§ Identity

Operator
Country
US
Launch date
2024-07-28
Launch site
AFETR
Launch vehicle
Mass (kg)
RCS (m²)

Purposes: comms

External: N2YO · Heavens-Above · Gunter

§ Orbital elements

Epoch: 2026-05-25T04:43:35.946048Z

Period
94.10 min
Inclination
53.1598°
Eccentricity
0.0000834
Mean motion
15.30238872 rev/d
Perigee alt
474.5 km
Apogee alt
475.7 km
Semi-major
6,853.2 km
B*
-2.7703e-4
RAAN
57.0884°
Arg perigee
87.9701°
Mean anomaly
272.1395°
Rev number
10,327

§ Raw data

STARLINK-321221 60285U 24132H   26145.19694382 -.00008564  00000+0 -27703-3 0  99992 60285  53.1598  57.0884 0000834  87.9701 272.1395 15.30238872103274

JSON: /api/v1/satellites/60285 · /tle

For live sub-satellite position, see the globe view (requires WebGL).

§ Visibility from observer

Set your observer location to see the next 7 days of passes ≥ 10°. The values pass through the URL so the page stays shareable.

No JS? Fill the form by hand. The geolocation button needs JavaScript.